TimeEST,TemperatureF,Dew PointF,Humidity,Sea Level PressureIn,VisibilityMPH,Wind Direction,Wind SpeedMPH,Gust SpeedMPH,PrecipitationIn,Events,Conditions,WindDirDegrees,DateUTC
12:53 AM,33.1,28.9,85,30.32,10.0,Calm,Calm,-,N/A,,Overcast,0,2013-02-23 05:53:00
1:53 AM,34.0,30.0,85,30.31,10.0,NE,4.6,-,N/A,,Overcast,50,2013-02-23 06:53:00
2:53 AM,34.0,30.0,85,30.30,10.0,Calm,Calm,-,N/A,,Overcast,0,2013-02-23 07:53:00
3:53 AM,35.1,30.0,82,30.28,10.0,East,4.6,-,N/A,,Overcast,80,2013-02-23 08:53:00
4:53 AM,34.0,28.9,82,30.28,10.0,East,4.6,-,N/A,,Overcast,90,2013-02-23 09:53:00
5:53 AM,33.1,28.0,82,30.26,10.0,East,4.6,-,N/A,,Clear,90,2013-02-23 10:53:00
6:53 AM,33.1,28.9,85,30.25,10.0,East,6.9,-,N/A,,Clear,80,2013-02-23 11:53:00
7:53 AM,37.0,32.0,82,30.26,10.0,East,4.6,-,N/A,,Mostly Cloudy,100,2013-02-23 12:53:00
8:53 AM,39.0,30.9,73,30.25,10.0,ESE,12.7,-,N/A,,Overcast,110,2013-02-23 13:53:00
9:53 AM,39.9,30.0,68,30.23,10.0,ESE,11.5,-,N/A,,Overcast,120,2013-02-23 14:53:00
10:31 AM,39.2,30.2,70,30.22,10.0,ESE,11.5,-,N/A,,Overcast,120,2013-02-23 15:31:00
10:38 AM,39.2,30.2,70,30.22,10.0,ESE,11.5,-,N/A,,Overcast,120,2013-02-23 15:38:00
10:53 AM,39.9,30.9,70,30.22,10.0,ESE,10.4,-,N/A,,Overcast,120,2013-02-23 15:53:00
11:53 AM,41.0,30.0,65,30.17,10.0,ESE,15.0,-,N/A,,Overcast,120,2013-02-23 16:53:00
12:53 PM,39.9,30.0,68,30.16,10.0,ESE,16.1,-,N/A,,Overcast,120,2013-02-23 17:53:00
1:53 PM,39.0,30.0,70,30.14,10.0,SE,16.1,-,N/A,,Overcast,130,2013-02-23 18:53:00
2:53 PM,39.0,30.0,70,30.12,10.0,ESE,15.0,-,N/A,,Overcast,120,2013-02-23 19:53:00
3:53 PM,39.0,30.9,73,30.10,10.0,ESE,12.7,-,N/A,,Overcast,110,2013-02-23 20:53:00
4:53 PM,37.9,30.9,76,30.07,9.0,East,15.0,-,0.00,Rain,Light Rain,100,2013-02-23 21:53:00
5:53 PM,37.9,34.0,86,30.05,9.0,ESE,15.0,-,0.01,Rain,Light Rain,110,2013-02-23 22:53:00
6:53 PM,39.0,36.0,89,30.01,10.0,East,17.3,-,0.03,Rain,Light Rain,100,2013-02-23 23:53:00
7:53 PM,39.0,37.0,93,29.99,5.0,East,15.0,21.9,0.04,Rain,Light Rain,90,2013-02-24 00:53:00
8:08 PM,39.2,37.4,93,29.99,5.0,East,13.8,-,0.01,Rain,Light Rain,80,2013-02-24 01:08:00
8:20 PM,39.2,37.4,93,29.98,5.0,East,13.8,21.9,0.02,Rain,Light Rain,90,2013-02-24 01:20:00
8:53 PM,39.9,37.9,93,29.97,7.0,East,13.8,23.0,0.06,Rain,Light Rain,90,2013-02-24 01:53:00
9:04 PM,39.2,37.4,93,29.96,8.0,East,15.0,25.3,0.00,Rain,Light Rain,90,2013-02-24 02:04:00
9:17 PM,39.2,37.4,93,29.94,8.0,East,15.0,20.7,0.00,Rain,Light Rain,90,2013-02-24 02:17:00
10:11 PM,39.2,37.4,93,29.91,5.0,East,15.0,23.0,0.03,Rain,Light Rain,80,2013-02-24 03:11:00
10:53 PM,41.0,39.0,93,29.87,4.0,East,17.3,31.1,0.08,Rain,Rain,90,2013-02-24 03:53:00
11:53 PM,42.1,39.9,92,29.82,6.0,East,17.3,25.3,0.03,Rain,Light Rain,80,2013-02-24 04:53:00